Tracking 30923 objects as of 1-Jul-2025
HD Live streaming from Space Station
objects crossing your sky now

WESTFORD NEEDLES

Track WESTFORD NEEDLES now!
10-day predictions
WESTFORD NEEDLES is classified as:


NORAD ID: 18615
Int'l Code: 1963-014DK
Perigee: 2,020.5 km
Apogee: 5,140.6 km
Inclination: 86.6 °
Period: 164.7 minutes
Semi major axis: 9951 km
RCS: 0.075 m2 (small)
Launch date: May 9, 1963
Source: United States (US)
Launch site: AIR FORCE WESTERN TEST RANGE (AFWTR)
Your satellite tracking list
Your tracking list is empty




NASA's NSSDC Master Catalog

Two Line Element Set (TLE):
1 18615U 63014DK  25179.73268260 -.00000181  00000-0 -23302-1 0  9996
2 18615  86.5738 153.3046 1567620 136.3210  29.8096  8.74510661 12190
Source of the keplerian elements: AFSPC